ARIANE 42P DEB, 44509

Orbit data source: Space-Track

ARIANE 42P DEB, 44509 is space debris in LEO originally from a launch on Mon, 10 Aug 1992 UTC launched from the French Guiana (FRGUI). Debris objects in space refer to the collection of defunct objects orbiting the Earth. Examples of debris include non-operational satellites, rocket bodies, and fragments generated from explosions, collisions, or faulty payload assembly.

Loading next visibility...
Identifier
44509, 1992-052G
Orbit
LEO
Country
Flag of FRFR
Related business
Manufacturer
ArianeGroup
Mission
Spacecraft
Bus & Motor
Unknown
Mass
Unknown
Launch date (UTC)
1992-08-10 (33 years ago)
Launch vehicle
Unknown
Launch site
French Guiana (FRGUI)
Object type
Payload
Rocket body
Debris
Shape & HBR
Unknown shape, 0.1 m
Radar Cross Section
Small (<0.1 m²)

Expand to show TLE details & history
Last TLE update: 18 hours ago

TLE from 18 hours ago
0 ARIANE 42P DEB
1 44509U 92052G   25306.35454904  .00001297  00000-0  55335-2 0  9992
2 44509  66.0850  40.0216 0062679  28.2371 332.2022 12.84869659290806
Epoch: 2025-11-02T08:30Z
TLE epoch observation values (Epoch: 2025-11-02T08:30:33.037Z)
Latitude
0.00004°
Longitude
-129.48751°
Altitude
1,281.238 km
Speed
7.236 km/s
True Right ascension
02h 40m 05s
True Declination
0° 00' 00"
Sunlit
Object was in full shadow at epoch
Visualization orbit readout
Latitude
Unknown
Longitude
Unknown
Altitude
Unknown
Speed
Unknown
Apparent Right ascension
Unknown
Apparent Declination
Unknown
Sunlit
N/A
Visualization observer readout
Local Sidereal Time
22:31:08
Azimuth
Unknown
Elevation
Unknown
Doppler factor
Unknown
Orbital elements
Apogee altitude
1,368.762 km
Perigee altitude
1,272.253 km
Semi-major axis
7,698.645 km
Eccentricity
0.00627
Inclination
66.085°
RAAN
40.0216°
Arg. of periapsis
28.2371°
True anomaly
331.86491°
Mean anomaly
332.2022°
Eccentric anomaly
332.03379°
Mean motion
3.21308 °/min
Orbital period
112.04 mins
BSTAR
0.0055335
Loading maneuver chart data...
Computing Atmospheric mass density...
Loading historical data...
Loading historical data...
Loading historical data...
Loading historical data...
Loading historical data...
Loading historical data...
Loading historical data...

Documentation

Showing up to 5 results
|